QPF
0.02 0.02 0.02 0.06 0.08 0.06 0.04 0.03 0.03 0.03 0.03 0.02 0.03 0.03 0.03 0.03 0.02 0.01 0.01 0.02 0.02 0.04 0.07 0.08 0.07 0.04 0.03 0.02 0.02 0.03 0.03 0.03 0.03 0.03 0.03 0.03 0.03 0.02 0.01 0.01 0.00 0.00 0.00
0.03 0.04 0.04 0.04 0.06 0.07 0.06 0.04 0.04 0.05 0.05 0.05 0.05 0.04 0.04 0.04 0.02 0.01 0.01 0.02 0.03 0.05 0.07 0.08 0.07 0.06 0.04 0.03 0.03 0.03 0.04 0.04 0.05 0.05 0.04 0.04 0.04 0.02 0.01 0.01 0.01 0.00 0.00
0.04 0.06 0.08 0.07 0.05 0.07 0.06 0.06 0.06 0.07 0.06 0.04 0.03 0.03 0.03 0.03 0.02 0.02 0.03 0.03 0.04 0.06 0.08 0.08 0.07 0.05 0.05 0.04 0.04 0.04 0.04 0.05 0.06 0.06 0.06 0.05 0.05 0.04 0.02 0.01 0.01 0.00 0.00
0.04 0.06 0.09 0.09 0.08 0.08 0.07 0.07 0.07 0.06 0.06 0.05 0.04 0.03 0.02 0.03 0.04 0.04 0.03 0.03 0.04 0.07 0.10 0.07 0.05 0.06 0.06 0.06 0.05 0.04 0.04 0.04 0.05 0.07 0.07 0.07 0.06 0.05 0.03 0.02 0.01 0.01 0.00
0.04 0.05 0.08 0.09 0.08 0.09 0.08 0.06 0.06 0.08 0.08 0.07 0.07 0.06 0.06 0.05 0.06 0.06 0.04 0.03 0.03 0.06 0.08 0.07 0.04 0.04 0.05 0.06 0.06 0.05 0.05 0.05 0.04 0.05 0.07 0.07 0.07 0.06 0.04 0.03 0.02 0.01 0.01
0.05 0.05 0.06 0.08 0.09 0.10 0.10 0.09 0.07 0.07 0.09 0.10 0.09 0.09 0.11 0.12 0.10 0.07 0.05 0.05 0.05 0.05 0.07 0.07 0.05 0.05 0.05 0.04 0.05 0.05 0.04 0.03 0.04 0.05 0.06 0.07 0.07 0.06 0.05 0.04 0.03 0.02 0.02
0.06 0.05 0.05 0.05 0.07 0.08 0.09 0.10 0.10 0.10 0.10 0.12 0.12 0.10 0.10 0.13 0.14 0.11 0.07 0.06 0.06 0.05 0.05 0.05 0.06 0.05 0.05 0.04 0.04 0.04 0.04 0.03 0.03 0.03 0.05 0.06 0.07 0.07 0.05 0.04 0.04 0.03 0.03
0.04 0.05 0.05 0.06 0.06 0.07 0.06 0.07 0.08 0.11 0.11 0.12 0.13 0.12 0.11 0.13 0.13 0.13 0.10 0.07 0.07 0.06 0.04 0.04 0.05 0.05 0.05 0.04 0.04 0.04 0.04 0.03 0.03 0.02 0.03 0.05 0.06 0.07 0.06 0.04 0.04 0.04 0.03
0.04 0.05 0.04 0.06 0.06 0.07 0.06 0.05 0.06 0.06 0.07 0.09 0.11 0.12 0.11 0.10 0.10 0.10 0.09 0.07 0.06 0.06 0.05 0.04 0.04 0.04 0.04 0.04 0.04 0.04 0.03 0.03 0.03 0.03 0.03 0.04 0.05 0.05 0.06 0.05 0.04 0.04 0.04
0.04 0.05 0.06 0.05 0.05 0.06 0.06 0.06 0.06 0.06 0.05 0.07 0.08 0.11 0.10 0.07 0.06 0.07 0.08 0.07 0.06 0.05 0.04 0.04 0.03 0.04 0.04 0.04 0.04 0.04 0.04 0.04 0.04 0.03 0.03 0.03 0.04 0.04 0.04 0.04 0.04 0.04 0.04
0.04 0.05 0.05 0.05 0.06 0.06 0.06 0.06 0.05 0.05 0.05 0.06 0.06 0.08 0.09 0.08 0.06 0.05 0.06 0.06 0.06 0.05 0.04 0.03 0.02 0.02 0.03 0.04 0.04 0.04 0.04 0.04 0.04 0.04 0.04 0.03 0.04 0.03 0.02 0.03 0.03 0.04 0.04
0.05 0.05 0.05 0.04 0.06 0.07 0.07 0.07 0.07 0.06 0.06 0.05 0.05 0.05 0.05 0.06 0.06 0.05 0.04 0.04 0.05 0.04 0.04 0.04 0.03 0.02 0.02 0.03 0.03 0.04 0.03 0.04 0.05 0.06 0.05 0.04 0.03 0.03 0.02 0.02 0.03 0.03 0.04
0.05 0.04 0.05 0.04 0.05 0.06 0.06 0.07 0.08 0.07 0.06 0.05 0.05 0.04 0.03 0.04 0.05 0.05 0.04 0.04 0.04 0.03 0.03 0.03 0.03 0.03 0.03 0.03 0.03 0.03 0.03 0.03 0.03 0.05 0.05 0.05 0.04 0.03 0.03 0.02 0.02 0.02 0.02
0.04 0.04 0.05 0.04 0.03 0.05 0.06 0.07 0.08 0.08 0.07 0.06 0.05 0.03 0.03 0.03 0.04 0.04 0.04 0.04 0.03 0.03 0.02 0.02 0.02 0.03 0.03 0.03 0.03 0.03 0.03 0.02 0.02 0.03 0.04 0.05 0.04 0.02 0.02 0.02 0.02 0.02 0.02
0.03 0.03 0.03 0.04 0.03 0.04 0.05 0.06 0.08 0.08 0.08 0.07 0.06 0.05 0.04 0.04 0.03 0.03 0.03 0.04 0.03 0.03 0.02 0.02 0.03 0.03 0.02 0.02 0.03 0.03 0.03 0.03 0.03 0.03 0.03 0.04 0.04 0.03 0.02 0.03 0.02 0.02 0.02
0.02 0.02 0.02 0.03 0.03 0.03 0.04 0.05 0.07 0.08 0.08 0.07 0.06 0.05 0.05 0.05 0.04 0.03 0.03 0.03 0.03 0.02 0.02 0.02 0.02 0.03 0.03 0.02 0.02 0.02 0.02 0.03 0.03 0.04 0.04 0.04 0.05 0.04 0.03 0.03 0.03 0.02 0.01
0.02 0.02 0.02 0.02 0.02 0.02 0.03 0.05 0.06 0.06 0.07 0.08 0.07 0.06 0.06 0.06 0.06 0.05 0.04 0.04 0.03 0.02 0.02 0.01 0.02 0.02 0.03 0.02 0.02 0.02 0.02 0.03 0.03 0.04 0.04 0.04 0.04 0.04 0.04 0.04 0.03 0.03 0.02
0.02 0.02 0.02 0.02 0.03 0.02 0.02 0.03 0.04 0.05 0.06 0.07 0.07 0.06 0.06 0.06 0.07 0.07 0.05 0.03 0.04 0.02 0.02 0.02 0.02 0.02 0.02 0.02 0.02 0.02 0.02 0.03 0.04 0.05 0.05 0.05 0.04 0.03 0.03 0.04 0.04 0.04 0.03
0.02 0.02 0.02 0.02 0.02 0.03 0.03 0.03 0.03 0.04 0.05 0.06 0.07 0.07 0.06 0.06 0.08 0.08 0.08 0.05 0.04 0.03 0.02 0.02 0.02 0.01 0.01 0.02 0.02 0.02 0.02 0.03 0.03 0.04 0.05 0.06 0.05 0.04 0.04 0.03 0.04 0.04 0.03
0.01 0.02 0.02 0.02 0.02 0.02 0.02 0.03 0.03 0.03 0.04 0.05 0.07 0.07 0.07 0.06 0.06 0.07 0.08 0.08 0.05 0.04 0.03 0.02 0.01 0.01 0.01 0.02 0.02 0.02 0.02 0.03 0.03 0.03 0.04 0.04 0.04 0.05 0.04 0.04 0.03 0.05 0.04
0.01 0.02 0.02 0.01 0.01 0.02 0.02 0.02 0.03 0.03 0.03 0.03 0.04 0.04 0.06 0.07 0.07 0.07 0.06 0.06 0.07 0.06 0.04 0.03 0.03 0.02 0.02 0.02 0.02 0.02 0.02 0.02 0.03 0.04 0.04 0.03 0.03 0.03 0.03 0.03 0.03 0.04 0.06
0.01 0.01 0.02 0.02 0.02 0.02 0.02 0.03 0.03 0.03 0.03 0.04 0.03 0.03 0.03 0.05 0.07 0.07 0.07 0.06 0.05 0.06 0.05 0.04 0.03 0.02 0.02 0.02 0.02 0.02 0.02 0.02 0.03 0.03 0.03 0.03 0.03 0.03 0.03 0.03 0.04 0.04 0.06
0.01 0.02 0.03 0.03 0.03 0.03 0.03 0.03 0.03 0.03 0.04 0.05 0.04 0.04 0.03 0.03 0.04 0.06 0.07 0.07 0.07 0.06 0.06 0.04 0.04 0.03 0.03 0.02 0.02 0.02 0.02 0.02 0.02 0.03 0.03 0.03 0.04 0.04 0.03 0.03 0.04 0.05 0.06
0.01 0.02 0.03 0.03 0.03 0.03 0.03 0.04 0.04 0.04 0.04 0.05 0.05 0.04 0.04 0.03 0.04 0.04 0.05 0.06 0.06 0.06 0.06 0.05 0.04 0.04 0.04 0.03 0.03 0.03 0.03 0.03 0.02 0.02 0.03 0.03 0.03 0.04 0.04 0.04 0.04 0.05 0.06
0.01 0.02 0.03 0.03 0.03 0.03 0.03 0.04 0.04 0.04 0.04 0.05 0.06 0.05 0.04 0.04 0.05 0.04 0.03 0.04 0.04 0.04 0.05 0.05 0.05 0.04 0.04 0.04 0.03 0.03 0.03 0.03 0.03 0.03 0.02 0.02 0.03 0.03 0.04 0.04 0.04 0.04 0.06
0.01 0.02 0.03 0.03 0.03 0.03 0.03 0.03 0.03 0.03 0.04 0.04 0.05 0.05 0.05 0.04 0.04 0.04 0.03 0.03 0.04 0.03 0.02 0.03 0.03 0.03 0.02 0.02 0.02 0.02 0.02 0.02 0.02 0.02 0.02 0.02 0.03 0.03 0.04 0.05 0.04 0.04 0.05
MSLP
1017.74 1017.54 1017.23 1016.81 1016.35 1015.89 1015.50 1015.21 1015.05 1015.03 1015.12 1015.30 1015.53 1015.78 1016.01 1016.22 1016.39 1016.53 1016.64 1016.74 1016.83 1016.92 1017.03 1017.15 1017.31 1017.49 1017.70 1017.93 1018.18 1018.43 1018.68 1018.92 1019.16 1019.39 1019.62 1019.87 1020.14 1020.42 1020.72 1021.04 1021.35 1021.65 1021.93
1017.74 1017.52 1017.18 1016.76 1016.28 1015.81 1015.40 1015.09 1014.91 1014.86 1014.93 1015.09 1015.31 1015.54 1015.77 1015.98 1016.14 1016.27 1016.38 1016.46 1016.55 1016.64 1016.74 1016.88 1017.04 1017.22 1017.43 1017.66 1017.90 1018.15 1018.39 1018.64 1018.89 1019.15 1019.42 1019.72 1020.04 1020.38 1020.74 1021.10 1021.46 1021.80 1022.11
1017.68 1017.43 1017.07 1016.64 1016.17 1015.71 1015.31 1015.02 1014.84 1014.79 1014.86 1015.01 1015.21 1015.43 1015.64 1015.81 1015.95 1016.06 1016.14 1016.20 1016.26 1016.34 1016.45 1016.58 1016.74 1016.92 1017.12 1017.34 1017.57 1017.80 1018.04 1018.30 1018.57 1018.87 1019.19 1019.55 1019.93 1020.34 1020.75 1021.16 1021.56 1021.93 1022.27
1017.63 1017.33 1016.95 1016.51 1016.06 1015.64 1015.28 1015.02 1014.87 1014.84 1014.91 1015.05 1015.24 1015.43 1015.60 1015.74 1015.84 1015.90 1015.95 1015.99 1016.04 1016.10 1016.20 1016.33 1016.48 1016.65 1016.84 1017.03 1017.24 1017.45 1017.68 1017.94 1018.23 1018.56 1018.94 1019.35 1019.80 1020.27 1020.74 1021.20 1021.63 1022.03 1022.39
1017.61 1017.26 1016.86 1016.42 1016.00 1015.61 1015.30 1015.09 1014.98 1014.98 1015.06 1015.19 1015.35 1015.51 1015.64 1015.74 1015.80 1015.83 1015.85 1015.87 1015.92 1015.98 1016.08 1016.20 1016.34 1016.50 1016.66 1016.81 1016.98 1017.16 1017.36 1017.60 1017.90 1018.25 1018.67 1019.13 1019.64 1020.16 1020.68 1021.18 1021.65 1022.07 1022.45
1017.65 1017.26 1016.83 1016.41 1016.00 1015.66 1015.40 1015.23 1015.15 1015.17 1015.25 1015.37 1015.50 1015.62 1015.72 1015.78 1015.82 1015.83 1015.85 1015.89 1015.94 1016.03 1016.14 1016.26 1016.39 1016.52 1016.64 1016.74 1016.84 1016.96 1017.11 1017.32 1017.60 1017.96 1018.40 1018.90 1019.45 1020.02 1020.58 1021.12 1021.61 1022.06 1022.46
1017.75 1017.33 1016.89 1016.46 1016.08 1015.77 1015.54 1015.40 1015.35 1015.37 1015.44 1015.54 1015.64 1015.72 1015.79 1015.83 1015.87 1015.90 1015.94 1016.01 1016.11 1016.24 1016.38 1016.51 1016.64 1016.73 1016.79 1016.82 1016.85 1016.88 1016.96 1017.11 1017.35 1017.70 1018.13 1018.65 1019.23 1019.83 1020.43 1021.00 1021.52 1021.99 1022.41
1017.88 1017.44 1017.00 1016.59 1016.22 1015.93 1015.72 1015.59 1015.53 1015.54 1015.58 1015.64 1015.71 1015.76 1015.81 1015.86 1015.91 1015.98 1016.09 1016.22 1016.39 1016.57 1016.76 1016.92 1017.03 1017.08 1017.08 1017.03 1016.95 1016.89 1016.88 1016.95 1017.14 1017.45 1017.87 1018.39 1018.98 1019.61 1020.23 1020.82 1021.38 1021.87 1022.33
1018.01 1017.59 1017.16 1016.77 1016.42 1016.14 1015.92 1015.78 1015.70 1015.66 1015.66 1015.67 1015.70 1015.73 1015.77 1015.83 1015.92 1016.05 1016.24 1016.46 1016.71 1016.97 1017.20 1017.38 1017.49 1017.50 1017.43 1017.29 1017.11 1016.95 1016.84 1016.83 1016.95 1017.21 1017.61 1018.12 1018.71 1019.35 1019.99 1020.61 1021.19 1021.72 1022.21
1018.09 1017.72 1017.34 1016.98 1016.65 1016.37 1016.14 1015.97 1015.84 1015.75 1015.68 1015.64 1015.62 1015.62 1015.66 1015.74 1015.87 1016.08 1016.34 1016.66 1016.99 1017.32 1017.61 1017.81 1017.91 1017.88 1017.75 1017.52 1017.25 1016.99 1016.79 1016.70 1016.76 1016.98 1017.35 1017.84 1018.43 1019.08 1019.74 1020.38 1020.98 1021.55 1022.07
1018.12 1017.82 1017.50 1017.19 1016.89 1016.62 1016.38 1016.16 1015.98 1015.82 1015.69 1015.58 1015.51 1015.48 1015.50 1015.60 1015.78 1016.04 1016.38 1016.77 1017.18 1017.57 1017.89 1018.12 1018.21 1018.15 1017.96 1017.67 1017.33 1017.00 1016.73 1016.58 1016.58 1016.76 1017.11 1017.59 1018.18 1018.82 1019.49 1020.14 1020.76 1021.35 1021.91
1018.05 1017.85 1017.63 1017.38 1017.12 1016.87 1016.61 1016.36 1016.13 1015.90 1015.70 1015.53 1015.41 1015.34 1015.35 1015.45 1015.65 1015.95 1016.33 1016.77 1017.23 1017.66 1018.01 1018.25 1018.34 1018.27 1018.05 1017.73 1017.35 1016.97 1016.66 1016.47 1016.45 1016.61 1016.94 1017.40 1017.98 1018.61 1019.27 1019.93 1020.56 1021.16 1021.74
1017.88 1017.80 1017.68 1017.51 1017.31 1017.08 1016.83 1016.56 1016.28 1016.01 1015.75 1015.52 1015.35 1015.24 1015.22 1015.31 1015.50 1015.81 1016.20 1016.66 1017.14 1017.59 1017.97 1018.22 1018.32 1018.25 1018.04 1017.71 1017.33 1016.95 1016.64 1016.45 1016.42 1016.57 1016.88 1017.33 1017.89 1018.50 1019.15 1019.78 1020.40 1021.00 1021.58
1017.62 1017.66 1017.64 1017.56 1017.42 1017.23 1017.00 1016.72 1016.43 1016.13 1015.83 1015.57 1015.35 1015.20 1015.15 1015.20 1015.36 1015.65 1016.02 1016.47 1016.95 1017.40 1017.78 1018.06 1018.18 1018.14 1017.96 1017.68 1017.33 1016.99 1016.71 1016.55 1016.54 1016.69 1016.99 1017.43 1017.96 1018.54 1019.15 1019.75 1020.34 1020.91 1021.46
1017.29 1017.43 1017.50 1017.50 1017.43 1017.29 1017.09 1016.84 1016.55 1016.24 1015.93 1015.65 1015.40 1015.22 1015.13 1015.13 1015.25 1015.49 1015.83 1016.24 1016.69 1017.14 1017.53 1017.82 1017.99 1018.01 1017.90 1017.69 1017.42 1017.16 1016.94 1016.83 1016.85 1017.01 1017.31 1017.73 1018.22 1018.76 1019.31 1019.86 1020.39 1020.91 1021.43
1016.90 1017.11 1017.26 1017.33 1017.32 1017.24 1017.08 1016.87 1016.61 1016.33 1016.03 1015.75 1015.50 1015.29 1015.16 1015.12 1015.18 1015.35 1015.63 1016.00 1016.42 1016.85 1017.25 1017.58 1017.80 1017.91 1017.90 1017.79 1017.63 1017.47 1017.34 1017.29 1017.35 1017.54 1017.83 1018.22 1018.67 1019.15 1019.64 1020.13 1020.60 1021.06 1021.52
1016.48 1016.74 1016.94 1017.06 1017.10 1017.06 1016.96 1016.80 1016.60 1016.36 1016.10 1015.85 1015.60 1015.39 1015.23 1015.14 1015.15 1015.26 1015.47 1015.78 1016.16 1016.58 1016.99 1017.37 1017.66 1017.86 1017.97 1017.98 1017.95 1017.90 1017.87 1017.90 1018.01 1018.22 1018.51 1018.87 1019.28 1019.71 1020.13 1020.55 1020.95 1021.35 1021.75
1016.08 1016.35 1016.56 1016.71 1016.79 1016.80 1016.75 1016.66 1016.52 1016.35 1016.15 1015.93 1015.71 1015.51 1015.33 1015.21 1015.16 1015.21 1015.36 1015.61 1015.96 1016.36 1016.78 1017.20 1017.57 1017.86 1018.08 1018.22 1018.31 1018.38 1018.45 1018.56 1018.73 1018.96 1019.26 1019.60 1019.97 1020.35 1020.72 1021.08 1021.42 1021.77 1022.12
1015.72 1015.97 1016.17 1016.33 1016.43 1016.49 1016.49 1016.46 1016.40 1016.30 1016.17 1016.01 1015.83 1015.64 1015.45 1015.30 1015.21 1015.21 1015.30 1015.50 1015.81 1016.19 1016.62 1017.07 1017.50 1017.88 1018.20 1018.45 1018.65 1018.82 1018.99 1019.17 1019.39 1019.66 1019.97 1020.31 1020.66 1021.01 1021.35 1021.66 1021.97 1022.26 1022.58
1015.41 1015.62 1015.80 1015.95 1016.07 1016.16 1016.22 1016.25 1016.26 1016.24 1016.18 1016.08 1015.95 1015.78 1015.61 1015.44 1015.32 1015.27 1015.31 1015.46 1015.72 1016.08 1016.50 1016.97 1017.43 1017.87 1018.27 1018.61 1018.90 1019.16 1019.40 1019.66 1019.93 1020.23 1020.56 1020.91 1021.27 1021.61 1021.93 1022.23 1022.52 1022.79 1023.07
1015.14 1015.30 1015.45 1015.59 1015.72 1015.84 1015.94 1016.04 1016.12 1016.17 1016.19 1016.15 1016.07 1015.94 1015.78 1015.62 1015.47 1015.39 1015.39 1015.50 1015.71 1016.03 1016.43 1016.89 1017.37 1017.83 1018.27 1018.66 1019.02 1019.34 1019.65 1019.95 1020.28 1020.62 1020.99 1021.36 1021.74 1022.10 1022.43 1022.74 1023.02 1023.29 1023.56
1014.89 1015.00 1015.12 1015.25 1015.38 1015.53 1015.68 1015.83 1015.97 1016.10 1016.18 1016.21 1016.19 1016.10 1015.97 1015.82 1015.67 1015.57 1015.54 1015.61 1015.78 1016.06 1016.43 1016.85 1017.31 1017.78 1018.22 1018.64 1019.02 1019.38 1019.73 1020.08 1020.45 1020.84 1021.24 1021.65 1022.06 1022.45 1022.81 1023.14 1023.44 1023.71 1023.98
1014.60 1014.67 1014.77 1014.89 1015.03 1015.20 1015.38 1015.58 1015.79 1015.98 1016.13 1016.23 1016.26 1016.23 1016.14 1016.02 1015.90 1015.80 1015.76 1015.80 1015.94 1016.18 1016.50 1016.89 1017.31 1017.75 1018.17 1018.58 1018.97 1019.35 1019.72 1020.10 1020.50 1020.93 1021.37 1021.82 1022.26 1022.69 1023.09 1023.44 1023.76 1024.06 1024.33
1014.25 1014.28 1014.36 1014.47 1014.62 1014.80 1015.02 1015.26 1015.52 1015.76 1015.98 1016.14 1016.25 1016.28 1016.26 1016.19 1016.11 1016.04 1016.02 1016.06 1016.18 1016.39 1016.68 1017.02 1017.40 1017.80 1018.20 1018.58 1018.96 1019.33 1019.71 1020.11 1020.53 1020.98 1021.45 1021.93 1022.40 1022.86 1023.29 1023.67 1024.02 1024.32 1024.60
1013.83 1013.83 1013.88 1013.98 1014.12 1014.32 1014.55 1014.83 1015.12 1015.42 1015.69 1015.92 1016.10 1016.21 1016.26 1016.27 1016.26 1016.25 1016.28 1016.35 1016.49 1016.70 1016.96 1017.28 1017.63 1017.99 1018.35 1018.71 1019.07 1019.43 1019.80 1020.20 1020.62 1021.08 1021.56 1022.06 1022.55 1023.03 1023.47 1023.87 1024.23 1024.54 1024.82
1013.38 1013.34 1013.35 1013.42 1013.55 1013.74 1013.99 1014.28 1014.60 1014.93 1015.26 1015.55 1015.80 1016.00 1016.14 1016.25 1016.33 1016.41 1016.51 1016.64 1016.82 1017.06 1017.34 1017.65 1017.98 1018.33 1018.67 1019.01 1019.35 1019.69 1020.05 1020.44 1020.85 1021.30 1021.78 1022.27 1022.76 1023.23 1023.67 1024.08 1024.43 1024.74 1025.02
Thickness
5643 5645 5646 5647 5648 5649 5650 5650 5650 5650 5650 5650 5650 5650 5651 5652 5654 5655 5657 5659 5660 5660 5661 5662 5661 5661 5661 5660 5660 5660 5659 5659 5658 5658 5657 5657 5657 5656 5655 5654 5653 5652 5651
5636 5637 5639 5640 5641 5642 5643 5643 5643 5643 5643 5643 5643 5643 5644 5645 5646 5648 5650 5651 5652 5654 5655 5655 5655 5654 5654 5654 5654 5653 5653 5653 5652 5652 5651 5651 5650 5650 5649 5648 5647 5646 5645
5629 5630 5631 5632 5633 5634 5635 5635 5635 5635 5635 5635 5635 5636 5637 5638 5639 5640 5642 5643 5645 5646 5647 5648 5648 5647 5647 5647 5647 5646 5646 5646 5646 5645 5645 5645 5644 5644 5643 5642 5641 5640 5639
5622 5623 5623 5625 5626 5626 5626 5627 5626 5626 5626 5626 5627 5627 5628 5630 5632 5633 5635 5636 5637 5638 5639 5639 5640 5640 5640 5640 5640 5639 5639 5639 5639 5638 5638 5638 5637 5636 5637 5636 5635 5634 5632
5614 5615 5616 5617 5618 5618 5618 5618 5618 5618 5618 5617 5618 5618 5620 5622 5624 5625 5626 5627 5628 5630 5631 5631 5631 5632 5632 5632 5632 5632 5632 5631 5631 5631 5631 5630 5630 5630 5630 5629 5628 5627 5626
5606 5607 5608 5609 5610 5610 5610 5610 5609 5609 5609 5608 5608 5607 5609 5611 5613 5615 5616 5617 5618 5620 5621 5622 5622 5623 5623 5624 5624 5624 5624 5624 5624 5624 5623 5623 5623 5623 5622 5622 5621 5621 5620
5599 5599 5600 5601 5602 5602 5603 5602 5600 5599 5598 5598 5597 5596 5597 5600 5602 5604 5606 5608 5609 5610 5610 5612 5613 5613 5614 5614 5615 5615 5616 5616 5616 5616 5616 5615 5615 5615 5615 5615 5614 5613 5613
5591 5592 5593 5593 5594 5594 5594 5593 5592 5590 5588 5589 5589 5587 5586 5587 5591 5594 5596 5598 5599 5600 5600 5601 5602 5603 5604 5605 5605 5606 5607 5607 5608 5608 5608 5608 5608 5608 5607 5608 5607 5606 5605
5583 5585 5585 5586 5586 5587 5586 5585 5584 5583 5581 5580 5581 5581 5578 5579 5579 5583 5585 5587 5588 5588 5590 5591 5593 5593 5594 5595 5596 5596 5597 5598 5599 5599 5599 5599 5599 5599 5599 5599 5599 5598 5597
5576 5577 5578 5578 5579 5579 5579 5578 5577 5576 5575 5573 5572 5572 5573 5572 5570 5571 5573 5575 5576 5577 5579 5581 5582 5582 5584 5585 5586 5587 5588 5588 5589 5590 5590 5591 5591 5591 5591 5590 5590 5589 5589
5567 5568 5569 5570 5570 5570 5570 5570 5569 5568 5567 5566 5565 5564 5562 5561 5561 5561 5561 5562 5564 5566 5567 5569 5571 5572 5573 5574 5576 5577 5578 5579 5580 5581 5581 5582 5582 5583 5582 5582 5581 5581 5580
5558 5560 5561 5562 5562 5562 5562 5562 5561 5560 5559 5558 5557 5556 5556 5554 5553 5551 5550 5550 5552 5554 5556 5558 5560 5562 5563 5564 5566 5567 5568 5569 5570 5571 5572 5572 5573 5573 5573 5573 5572 5572 5571
5550 5551 5552 5552 5553 5553 5553 5553 5552 5552 5551 5549 5548 5548 5548 5547 5546 5543 5541 5539 5539 5541 5544 5547 5548 5550 5552 5554 5555 5556 5558 5559 5560 5561 5562 5562 5562 5562 5562 5563 5563 5563 5562
5542 5543 5543 5544 5544 5544 5544 5544 5543 5543 5542 5540 5539 5538 5537 5537 5536 5535 5533 5530 5528 5529 5532 5535 5537 5539 5541 5542 5544 5545 5547 5547 5548 5550 5551 5551 5551 5551 5552 5552 5552 5552 5552
5534 5534 5535 5535 5535 5535 5535 5535 5534 5533 5532 5531 5530 5528 5527 5527 5526 5526 5525 5525 5523 5521 5523 5525 5527 5530 5530 5531 5533 5534 5535 5536 5537 5538 5539 5540 5540 5540 5540 5541 5541 5541 5540
5525 5525 5526 5526 5526 5526 5526 5525 5524 5523 5522 5521 5519 5518 5518 5517 5516 5516 5516 5516 5517 5517 5515 5518 5518 5519 5520 5520 5521 5522 5523 5524 5526 5526 5528 5529 5529 5529 5529 5530 5530 5530 5529
5516 5516 5516 5517 5517 5517 5517 5516 5515 5514 5513 5511 5510 5509 5509 5508 5508 5508 5507 5507 5508 5508 5506 5508 5507 5508 5508 5509 5510 5510 5511 5513 5514 5515 5516 5518 5518 5519 5518 5518 5518 5518 5518
5507 5507 5507 5507 5507 5508 5507 5506 5506 5505 5503 5502 5501 5500 5500 5500 5499 5499 5499 5499 5499 5499 5498 5497 5497 5497 5497 5498 5499 5499 5500 5501 5502 5503 5504 5506 5507 5507 5507 5507 5507 5506 5506
5497 5497 5497 5497 5498 5498 5498 5498 5497 5496 5495 5495 5494 5493 5492 5491 5491 5491 5490 5490 5490 5490 5490 5488 5487 5486 5486 5487 5487 5488 5488 5489 5490 5491 5492 5493 5494 5495 5495 5495 5495 5494 5493
5487 5487 5487 5487 5488 5488 5488 5488 5488 5487 5487 5486 5486 5485 5484 5484 5484 5483 5483 5482 5481 5481 5480 5478 5477 5476 5476 5476 5476 5476 5476 5477 5478 5479 5480 5481 5481 5482 5483 5483 5483 5482 5481
5477 5477 5477 5477 5478 5478 5479 5479 5478 5479 5478 5478 5477 5477 5476 5476 5476 5475 5475 5474 5473 5472 5470 5469 5468 5467 5466 5466 5466 5465 5465 5465 5466 5467 5468 5469 5469 5470 5470 5470 5469 5468 5468
5466 5467 5467 5468 5468 5469 5470 5470 5469 5469 5469 5469 5468 5468 5467 5467 5466 5466 5466 5466 5466 5465 5463 5461 5461 5460 5460 5458 5457 5456 5454 5454 5455 5456 5455 5456 5456 5457 5457 5457 5456 5455 5454
5456 5457 5458 5459 5459 5460 5461 5461 5461 5460 5460 5460 5459 5458 5458 5457 5457 5456 5456 5457 5457 5457 5456 5455 5455 5454 5452 5451 5449 5446 5444 5444 5445 5445 5443 5444 5444 5444 5444 5444 5443 5443 5442
5446 5447 5448 5449 5450 5450 5451 5452 5451 5451 5450 5450 5450 5449 5448 5448 5447 5447 5446 5446 5445 5445 5446 5446 5447 5446 5444 5442 5440 5439 5437 5434 5433 5432 5431 5430 5430 5430 5431 5431 5431 5430 5429
5436 5437 5438 5439 5440 5441 5441 5442 5442 5441 5440 5440 5439 5439 5439 5438 5438 5438 5437 5436 5435 5434 5434 5435 5435 5435 5434 5432 5430 5427 5424 5422 5422 5420 5418 5417 5417 5417 5418 5419 5418 5417 5415
5426 5427 5428 5429 5429 5431 5432 5433 5432 5431 5430 5429 5429 5429 5428 5428 5428 5428 5426 5426 5424 5424 5423 5423 5423 5423 5422 5421 5419 5418 5416 5413 5410 5409 5407 5405 5404 5403 5404 5406 5405 5403 5402